{"data":{"norad_id":69314,"intl_designator":"2026-119U","name":"STARLINK-37617","alt_names":[],"object_type":"PAYLOAD","status":"ACTIVE","operator":null,"country":"US","launch_date":"2026-05-30","launch_site_code":"AFWTR","launch_vehicle":null,"mission":null,"orbit_class":"UNKNOWN","rcs_meters":null,"size_class":null,"mass_kg":null,"dimensions":null,"purposes":["comms"],"wikipedia_slug":null,"has_3d_model":false,"image_url":null,"decayed_at":null,"tle_current":{"epoch":"2026-09-19T12:04:00.012288Z","epoch_age_seconds":115197,"freshness":"FRESH","line1":"1 69314U 26119U   26262.50277792  .00012454  00000+0  38732-3 0  9990","line2":"2 69314  97.2850 287.2997 0000188  97.8801 262.2463 15.33455938 18516","mean_motion":15.33455938,"eccentricity":1.88e-5,"inclination_deg":97.285,"raan_deg":287.2997,"arg_perigee_deg":97.8801,"mean_anomaly_deg":262.2463,"bstar":0.00038732,"rev_number":1851,"period_min":93.905534832524,"perigee_km":465.38197030365,"apogee_km":465.63929145457,"semimajor_km":6843.6476308791,"source":"CELESTRAK","updated_at":"2026-09-20T09:00:44.157547Z"}}}